User: anonymous   Login
Location: Unspecified
(0.0000°N, 0.0000°E)
Time: 13:41:28
(UTC+00:00)
Language:

OPTUS D3 - Orbit

View from above orbital plane
View from above orbital plane
View from above satellite
View from above satellite

Ground track
Ground track

The orbit data is extracted from the following two-line orbital elements,

1 35756U 09044B   14301.63945140 -.00000153  00000-0  00000+0 0  1939
2 35756 000.0605 035.4134 0002183 188.1896 199.5406 01.00271767 19021
Epoch (UTC): 28 October 2014 15:20:48
Eccentricity: 0.0002183
inclination: 0.0605°
perigee height: 35777 km
apogee height: 35795 km
right ascension of ascending node: 35.4134°
argument of perigee: 188.1896°
revolutions per day: 1.00271767
mean anomaly at epoch: 199.5406°
orbit number at epoch: 1902

The dashed part of the orbit path shows where the satellite is in the earth's shadow,  

DLR